sat.trackr.live / text

‹ back to catalog

O3B FM11

NORAD 40349 · 2014-083B

PAYLOAD ACTIVE UNKNOWN

§ Identity

Operator
Country
O3B
Launch date
2014-12-18
Launch site
FRGUI
Launch vehicle
Mass (kg)
RCS (m²)
12.26

Purposes: comms

External: N2YO · Heavens-Above · Gunter

§ Orbital elements

Epoch: 2026-05-24T23:38:01.613760Z

Period
287.93 min
Inclination
0.0566°
Eccentricity
0.0002798
Mean motion
5.00115573 rev/d
Perigee alt
8,061.8 km
Apogee alt
8,069.9 km
Semi-major
14,444.0 km
B*
0.0000e+0
RAAN
357.0139°
Arg perigee
50.8978°
Mean anomaly
312.1115°
Rev number
20,875

§ Raw data

O3B FM111 40349U 14083B   26144.98474090 -.00000024  00000+0  00000+0 0  99992 40349   0.0566 357.0139 0002798  50.8978 312.1115  5.00115573208753

JSON: /api/v1/satellites/40349 · /tle

For live sub-satellite position, see the globe view (requires WebGL).

§ Visibility from observer

Set your observer location to see the next 7 days of passes ≥ 10°. The values pass through the URL so the page stays shareable.

No JS? Fill the form by hand. The geolocation button needs JavaScript.